Location: Mat�lon
(46.2791°N, 7.1028°E)
Time: 06:33:43
(UTC+00:00)

Cosmos 1833 Rocket - Pass Details

Date: 18 September 2020
Orbit: 831 x 841 km, 71.0° (Epoch: 23 October)

Event Time Altitude Azimuth Distance (km) Brightness Sun altitude
Rises 19:59:55 0° 338° (NNW) 3,407 6.7 -24.4°
Reaches altitude 10° 20:02:38 10° 348° (NNW) 2,469 5.7 -24.8°
Enters shadow 20:07:33 32° 49° (NE) 1,405 3.7 -25.5°
